CW0003 Weather Reports


Display with metric or nautical units.
time (UTC)temp
F
wind
direction
speed
MPH
gust
MPH
rain 1hr
in
rain 24hr
in
rain mn
in
humidity
%
barometer
mb
20170117023246 31 218 0.0 0.0 0.00 0.00 0.00 66 1022.7
20170117021836 32 211 0.0 0.0 0.00 0.00 0.00 64 1022.7
20170117020335 32 222 0.0 0.0 0.00 0.00 0.00 65 1022.6
20170117014829 32 211 0.0 0.0 0.00 0.00 0.00 64 1022.7
20170117013329 32 223 0.0 0.0 0.00 0.00 0.00 63 1022.8
20170117011835 32 202 0.0 0.0 0.00 0.00 0.00 64 1022.6
20170117010326 33 218 0.0 0.0 0.00 0.00 0.00 61 1022.8
20170117004821 33 221 0.0 0.0 0.00 0.00 0.00 60 1022.8
20170117003315 33 247 0.0 0.0 0.00 0.00 0.00 60 1023.0
20170117001813 33 205 0.0 0.0 0.00 0.00 0.00 60 1023.1
20170117000315 33 213 0.0 0.0 0.00 0.00 0.00 59 1023.2
20170116234806 33 205 0.0 0.0 0.00 0.00 0.00 59 1023.2
20170116233307 33 187 0.0 0.0 0.00 0.00 0.00 58 1023.4
20170116231801 33 197 0.0 0.0 0.00 0.00 0.00 59 1023.4
20170116230255 31 215 0.0 0.0 0.00 0.00 0.00 68 1023.5
20170116224800 32 223 0.0 0.0 0.00 0.00 0.00 63 1023.5
20170116223252 32 211 0.0 0.0 0.00 0.00 0.00 65 1023.6
20170116221750 32 209 0.0 0.0 0.00 0.00 0.00 66 1023.5
20170116220301 33 198 0.0 0.0 0.00 0.00 0.00 62 1023.5
20170116214745 34 209 0.0 0.0 0.00 0.00 0.00 59 1023.4
20170116213241 36 229 0.0 0.0 0.00 0.00 0.00 53 1023.7
20170116211740 38 224 0.0 0.0 0.00 0.00 0.00 48 1023.9
20170116210239 38 251 0.0 0.0 0.00 0.00 0.00 49 1023.9
20170116204738 39 240 0.0 0.0 0.00 0.00 0.00 45 1024.0
20170116203255 39 230 0.0 0.0 0.00 0.00 0.00 46 1024.0
20170116201726 38 214 0.0 0.0 0.00 0.00 0.00 45 1024.0
20170116200222 39 228 0.0 0.0 0.00 0.00 0.00 46 1024.2
20170116194731 39 277 0.0 0.0 0.00 0.00 0.00 43 1023.9
20170116193214 39 200 0.0 0.0 0.00 0.00 0.00 43 1024.2
20170116191714 39 266 0.0 0.0 0.00 0.00 0.00 42 1024.2
20170116190211 39 237 0.0 0.0 0.00 0.00 0.00 43 1024.4
20170116184710 39 238 0.0 0.0 0.00 0.00 0.00 42 1024.4
20170116183210 39 206 0.0 0.0 0.00 0.00 0.00 43 1024.5
20170116181703 38 239 0.0 0.0 0.00 0.00 0.00 43 1024.7
20170116180155 38 205 0.0 0.0 0.00 0.00 0.00 45 1025.0
20170116174651 37 198 0.0 0.0 0.00 0.00 0.00 47 1025.2
20170116173147 38 209 0.0 0.0 0.00 0.00 0.00 49 1025.4
20170116171644 37 201 0.0 0.0 0.00 0.00 0.00 49 1025.7
20170116170214 36 210 0.0 0.0 0.00 0.00 0.00 49 1025.9
20170116164636 36 292 0.0 0.0 0.00 0.00 0.00 50 1026.1
20170116163131 36 246 0.0 0.0 0.00 0.00 0.00 50 1026.4
20170116160120 34 200 0.0 0.0 0.00 0.00 0.00 55 1027.4
20170116154614 33 232 0.0 0.0 0.00 0.00 0.00 58 1027.8
20170116153125 31 214 0.0 0.0 0.00 0.00 0.00 61 1028.1
20170116151604 30 222 0.0 0.0 0.00 0.00 0.00 61 1028.3
20170116150057 29 217 0.0 0.0 0.00 0.00 0.00 64 1028.6
20170116144554 27 208 0.0 0.0 0.00 0.00 0.00 67 1028.7
20170116143053 26 208 0.0 0.0 0.00 0.00 0.00 73 1028.8
20170116141542 25 212 0.0 0.0 0.00 0.00 0.00 75 1029.0
20170116140053 21 220 0.0 0.0 0.00 0.00 0.00 89 1029.0
20170116134531 19 254 0.0 0.0 0.00 0.00 0.00 91 1028.8
20170116133031 13 306 0.0 0.0 0.00 0.00 0.00 91 1028.8
20170116131626 13 307 0.0 0.0 0.00 0.00 0.00 90 1028.4
20170116130023 12 307 0.0 0.0 0.00 0.00 0.00 90 1028.7
20170116124522 12 307 0.0 0.0 0.00 0.00 0.00 88 1028.8
20170116123028 12 307 0.0 0.0 0.00 0.00 0.00 88 1029.0
20170116121519 13 307 0.0 0.0 0.00 0.00 0.00 88 1029.1
20170116120007 13 307 0.0 0.0 0.00 0.00 0.00 89 1029.2
20170116114509 13 307 0.0 0.0 0.00 0.00 0.00 89 1029.2
20170116113003 13 307 0.0 0.0 0.00 0.00 0.00 89 1028.9
20170116111502 13 307 0.0 0.0 0.00 0.00 0.00 88 1029.0
20170116110010 13 307 0.0 0.0 0.00 0.00 0.00 88 1029.1
20170116104453 13 307 0.0 0.0 0.00 0.00 0.00 89 1029.2
20170116102954 13 307 0.0 0.0 0.00 0.00 0.00 89 1029.3
20170116101547 13 307 0.0 0.0 0.00 0.00 0.00 89 1029.2
20170116095953 14 307 0.0 0.0 0.00 0.00 0.00 88 1029.4
20170116094506 14 307 0.0 0.0 0.00 0.00 0.00 88 1029.5
20170116092941 14 307 0.0 0.0 0.00 0.00 0.00 89 1029.1
20170116091440 14 307 0.0 0.0 0.00 0.00 0.00 89 1029.0
20170116085939 14 307 0.0 0.0 0.00 0.00 0.00 88 1029.1
20170116084433 14 307 0.0 0.0 0.00 0.00 0.00 88 1029.2
20170116082929 15 307 0.0 0.0 0.00 0.00 0.00 88 1029.5
20170116081427 15 307 0.0 0.0 0.00 0.00 0.00 87 1029.2
20170116075923 15 307 0.0 0.0 0.00 0.00 0.00 87 1029.4
20170116074421 15 307 0.0 0.0 0.00 0.00 0.00 87 1029.4
20170116072929 15 307 0.0 0.0 0.00 0.00 0.00 87 1029.5
20170116071417 15 307 0.0 0.0 0.00 0.00 0.00 87 1029.4
20170116065905 16 307 0.0 0.0 0.00 0.00 0.00 87 1029.5
20170116064356 16 307 0.0 0.0 0.00 0.00 0.00 87 1029.7
20170116062849 16 307 0.0 0.0 0.00 0.00 0.00 87 1029.3
20170116061338 16 307 0.0 0.0 0.00 0.00 0.00 87 1029.3
20170116055833 16 307 0.0 0.0 0.00 0.00 0.00 86 1028.9
20170116054423 16 307 0.0 0.0 0.00 0.00 0.00 85 1028.8
20170116052924 17 307 0.0 0.0 0.00 0.00 0.00 85 1028.3
20170116051411 17 307 0.0 0.0 0.00 0.00 0.00 85 1028.5
20170116045908 17 307 0.0 0.0 0.00 0.00 0.00 85 1028.5
20170116044406 18 307 0.0 0.0 0.00 0.00 0.00 85 1028.4
20170116042908 18 307 0.0 0.0 0.00 0.00 0.00 84 1028.5
20170116041400 18 307 0.0 0.0 0.00 0.00 0.00 83 1028.5
20170116035857 19 307 0.0 0.0 0.00 0.00 0.00 83 1028.5
20170116034352 19 307 0.0 0.0 0.00 0.00 0.00 83 1028.6
20170116032921 19 307 0.0 0.0 0.00 0.00 0.00 82 1028.4
20170116031355 20 307 0.0 0.0 0.00 0.00 0.00 82 1028.3
20170116025846 20 307 0.0 0.0 0.00 0.00 0.00 81 1028.1